Tracking 19181 objects as of 17-Jun-2018
HD Live streaming from Space Station
objects crossing your sky now

FENGYUN 1C DEB

Track FENGYUN 1C DEB now!
10-day predictions


NORAD ID: 32134
Int'l Code: 1999-025CSC
Perigee: 650.0 km
Apogee: 1,063.1 km
Inclination: 98.8 °
Period: 101.9 minutes
Semi major axis: 7227 km
RCS: 0.0043 m2 (small)
Launch date: May 10, 1999
Source: People's Republic of China (PRC)
Launch site: Taiyaun Space Center, China (TSC)

Note: This is SATELLITE DEBRIS
aabbcc
Your satellite tracking list
Your tracking list is empty




NASA's NSSDC Master Catalog

Two Line Element Set (TLE):
1 32134U 99025CSC 18167.06193576 +.00000282 +00000-0 +12061-3 0  9993
2 32134 098.8073 205.7359 0285755 185.8449 206.5420 14.12917349564412
Source of the keplerian elements: AFSPC